Weather History for Denver Centennial, CO

Change the Weather History Date:

Tuesday, April 10, 2012

  Actual Average Record
Temperature  
Mean Temperature 58 °F -  
Max Temperature 76 °F 55 °F 76 °F (2012)
Min Temperature 39 °F 30 °F 2 °F (2013)
Degree Days  
Heating Degree Days 7    
Month to date heating degree days 151  
Growing Degree Days 7 (Base 50)    
Moisture  
Dew Point 35 °F    
Average Humidity 52    
Maximum Humidity 92    
Minimum Humidity 11    
Precipitation  
Precipitation 0.00 in - - ()
Month to date precipitation 0.65  
Year to date precipitation 2.57  
Sea Level Pressure  
Sea Level Pressure 29.98 in    
Wind  
Wind Speed 6 mph (South)    
Max Wind Speed 25 mph    
Max Gust Speed 30 mph    
Visibility 10 miles    
Events      
Averages and records for this station are not official NWS values.
T = Trace of Precipitation, MM = Missing Value Source: NWS Daily Summary

Daily Weather History Graph

Daily Weather History Graph

Search for Another Location

Airport:

Trip Planner

Search our weather history database for the weather conditions in past years. The results will help you decide how hot, cold, wet, or windy it might be!

Date:

Astronomy

Apr. 10, 2012 Rise Set
Actual Time 6:28 AM MDT 7:32 PM MDT
Civil Twilight 6:01 AM MDT 8:00 PM MDT
Nautical Twilight 5:28 AM MDT 8:33 PM MDT
Astronomical Twilight 4:54 AM MDT 9:07 PM MDT
Moon No Moon Rise 9:17 AM MDT (4/10)
Length of Visible Light 13h 59m
Length of Day
13h 04m
Waning Gibbous, 79% of the Moon is Illuminated
Apr 10
Waning Gibbous
Apr 13
Last Quarter
Apr 21
New
Apr 29
First Quarter
May 5
Full

Hourly Weather History & Observations

Time (MDT) Temp. Windchill Dew Point Humidity Pressure Visibility Wind Dir Wind Speed Gust Speed Precip Events Conditions
12:53 AM 45.0 °F 41.8 °F 30.9 °F 58% 30.09 in 10.0 mi SW 5.8 mph - N/A   Clear
1:53 AM 45.0 °F - 30.9 °F 58% 30.07 in 10.0 mi Calm Calm - N/A   Clear
2:53 AM 42.1 °F 39.2 °F 30.9 °F 65% 30.06 in 10.0 mi South 4.6 mph - N/A   Clear
3:53 AM 41.0 °F 39.0 °F 37.0 °F 86% 30.05 in 10.0 mi South 3.5 mph - N/A   Clear
4:53 AM 41.0 °F 39.0 °F 37.9 °F 89% 30.05 in 10.0 mi SW 3.5 mph - N/A   Clear
5:53 AM 39.9 °F 36.7 °F 37.9 °F 93% 30.05 in 7.0 mi SSW 4.6 mph - N/A   Clear
6:53 AM 42.1 °F - 39.0 °F 89% 30.06 in 10.0 mi Calm Calm - N/A   Clear
7:53 AM 46.0 °F 44.8 °F 37.9 °F 73% 30.06 in 10.0 mi SSW 3.5 mph - N/A   Clear
8:53 AM 52.0 °F - 39.9 °F 63% 30.04 in 10.0 mi SSE 4.6 mph - N/A   Clear
9:53 AM 60.1 °F - 37.0 °F 42% 30.02 in 10.0 mi West 5.8 mph - N/A   Clear
10:53 AM 66.9 °F - 36.0 °F 32% 29.98 in 10.0 mi Calm Calm - N/A   Clear
1:53 PM 75.9 °F - 18.0 °F 11% 29.90 in 10.0 mi East 9.2 mph 19.6 mph N/A   Partly Cloudy
2:53 PM 75.9 °F - 21.9 °F 13% 29.88 in 10.0 mi NNE 8.1 mph - N/A   Partly Cloudy
3:53 PM 75.0 °F - 25.0 °F 16% 29.88 in 10.0 mi NE 8.1 mph - N/A   Partly Cloudy
4:53 PM 75.0 °F - 30.0 °F 19% 29.88 in 10.0 mi ENE 8.1 mph - N/A   Partly Cloudy
5:53 PM 70.0 °F - 37.9 °F 31% 29.91 in 10.0 mi South 17.3 mph 24.2 mph N/A   Partly Cloudy
6:53 PM 66.0 °F - 39.0 °F 37% 29.92 in 10.0 mi SSE 23.0 mph 28.8 mph N/A   Partly Cloudy
7:53 PM 62.1 °F - 39.9 °F 44% 29.93 in 10.0 mi South 15.0 mph - N/A   Partly Cloudy
8:53 PM 61.0 °F - 41.0 °F 48% 29.92 in 10.0 mi SSE 12.7 mph - N/A   Partly Cloudy
9:53 PM 59.0 °F - 45.0 °F 60% 29.91 in 10.0 mi South 15.0 mph 21.9 mph N/A   Clear
11:53 PM 55.0 °F - 46.9 °F 74% 29.90 in 10.0 mi SSE 8.1 mph - N/A   Clear